Regional Weather Roundup
Issued by NWS

Home | Current Version | Previous Version | Text Only | Print | Product List | Glossary Off
Versions: 1 2 3 4 5 6 7 8 9 10 11 12 13 14 15 16 17 18 19 20 21 22 23 24 25 26 27 28 29 30 31 32 33 34 35 36 37 38 39 40 41 42 43 44 45 46 47 48 49 50

548
ASUS43 KOAX 231110
RWRNE

WEATHER ROUNDUP FOR NEBRASKA
NATIONAL WEATHER SERVICE OMAHA NE
600 AM CDT MON OCT 23 2017

NOTES: SATELLITE DATA IS BEING USED TO AUGMENT CLOUD COVER ABOVE
       12000 FEET.
       "FAIR" INDICATES FEW OR NO CLOUDS BELOW 12,000 FEET WITH NO
       SIGNIFICANT WEATHER AND/OR OBSTRUCTIONS TO VISIBILITY.


NEZ001>004-019>022-054>056-231200-
NEBRASKA PANHANDLE

CITY           SKY/WX    TMP DP  RH WIND       PRES   REMARKS
SCOTTSBLUFF    CLOUDY    48  26  42 NW28G38   30.28R
ALLIANCE       CLOUDY    48  27  44 NW20      30.19S
CHADRON        CLEAR     46  26  45 NW13      30.21R
GORDON         FAIR      41  38  87 N5        30.16S
KIMBALL        CLOUDY    43  32  66 N21G29    30.27R
SIDNEY         CLOUDY    44  33  65 N17G29    30.26R
$$

NEZ057>060-069>072-079>082-231200-
SOUTHWEST NEBRASKA

CITY           SKY/WX    TMP DP  RH WIND       PRES   REMARKS
NORTH PLATTE   CLOUDY    53  38  56 N15G24    30.13R
IMPERIAL       CLOUDY    51  35  54 N13       30.18R
LEXINGTON      CLOUDY    55  38  53 N20G28    30.07R
MCCOOK         CLOUDY    54  36  50 N17       30.10R
OGALLALA       CLOUDY    50  37  61 N20G32    30.19R
$$

NEZ005>010-023>029-035>040-094-231200-
NORTH CENTRAL NEBRASKA

CITY           SKY/WX    TMP DP  RH WIND       PRES   REMARKS
VALENTINE      PTCLDY    54  27  35 NW17G28   30.10R
AINSWORTH      PTCLDY    55  33  44 NW15G24   30.08R
BROKEN BOW     CLEAR     55  37  50 NW17G31   30.06R
O`NEILL        CLOUDY    58  38  48 NW24G32   30.02R
ORD            CLOUDY    55  39  54 NW16      30.01R
THEDFORD       MOCLDY    53  33  46 NW22G28   30.13R
$$

NEZ041-046>049-061>064-073>077-083>087-231200-
SOUTH CENTRAL NEBRASKA

CITY           SKY/WX    TMP DP  RH WIND       PRES   REMARKS
GRAND ISLAND   CLOUDY    58  39  49 N24G30    29.98R
AURORA         CLOUDY    58  38  46 N16G25    29.96R
HASTINGS       PTCLDY    55  37  50 N18       29.99R
HEBRON         CLEAR     47  33  58 W7        29.94R
HOLDREGE       CLOUDY    55  39  54 N15G24    30.04R
KEARNEY        CLOUDY    56  38  50 N16       30.02R
YORK           PTCLDY    55  37  50 NW16G23   29.95R
$$

NEZ011>018-030>034-042>045-231200-
NORTHEAST NEBRASKA

CITY           SKY/WX    TMP DP  RH WIND       PRES   REMARKS
NORFOLK        CLOUDY    58  39  49 NW20G29   29.94R
ALBION         PTCLDY    60  39  46 NW23G30   29.97R
BLAIR          CLOUDY    49  34  56 W7        29.87R
COLUMBUS       PTCLDY    59  39  47 NW18G28   29.93R
FREMONT        PTCLDY    49  36  59 W10       29.89R
TEKAMAH        PTCLDY    49  34  56 CALM      29.88R
WAYNE          MOCLDY    57  36  44 NW16G26   29.92R
$$

NEZ050>053-065>068-078-088>093-231200-
SOUTHEAST NEBRASKA

CITY           SKY/WX    TMP DP  RH WIND       PRES   REMARKS
LINCOLN        CLEAR     51  32  48 NW6       29.92R
OMAHA EPPLEY   CLOUDY    47  36  65 SE7       29.88R
BEATRICE       CLEAR     45  35  68 SW3       29.91S
FALLS CITY     CLEAR     45  37  73 S5        29.89F
NEBRASKA CITY  PTCLDY    45  37  74 SW5       29.88R
PLATTSMOUTH    PTCLDY    44  36  73 CALM      29.88R
$$

NEZ044-045-051>053-067-231200-
OMAHA AREA

CITY           SKY/WX    TMP DP  RH WIND       PRES   REMARKS
OMAHA EPPLEY   CLOUDY    47  36  65 SE7       29.88R
BLAIR          CLOUDY    49  34  56 W7        29.87R
FREMONT        PTCLDY    49  36  59 W10       29.89R
MILLARD        CLEAR     44  38  77 CALM      29.88R
OFFUTT AFB     CLOUDY    39  36  86 CALM      29.87R
PLATTSMOUTH    PTCLDY    44  36  73 CALM      29.88R
WAHOO          FAIR      55  34  45 NW12G17   29.89R
$$




USA.gov is the U.S. government's official web portal to all federal, state and local government web resources and services.